User: anonymous   Login
Location: ??????
(42.0089°N, 44.3281°E)
Time: 01:11:33
(UTC+00:00)
Language:

Cosmos 220 Rocket - Orbit

View from above orbital plane
View from above orbital plane
View from above satellite
View from above satellite

Ground track
Ground track

The orbit data is extracted from the following two-line orbital elements,

1 03230U 68040B   23339.56786904  .00002777  00000-0  25858-3 0  9995
2 03230  74.0341 188.5030 0029114 231.7276 128.1288 14.94515513966378
Epoch (UTC): 05 December 2023 13:37:43
Eccentricity: 0.0029114
inclination: 74.0341°
perigee height: 563 km
apogee height: 604 km
right ascension of ascending node: 188.5030°
argument of perigee: 231.7276°
revolutions per day: 14.94515513
mean anomaly at epoch: 128.1288°
orbit number at epoch: 96637

The dashed part of the orbit path shows where the satellite is in the earth's shadow,  

DLR